Location: Chuathbaluk
(61.5726°N, 159.2454°W)
Time: 08:07:59
(UTC+00:00)

NUDT-PHONESAT - Pass Details

Date: 22 January 2021
Orbit: 479 x 498 km, 97.4° (Epoch: 08 March)

Event Time Altitude Azimuth Distance (km) Brightness Sun altitude
Rises 03:11:51 0° 138° (SE) 2,577 ? -6.4°
Reaches altitude 10° 03:14:00 10° 131° (SE) 1,701 ? -6.7°
Maximum altitude 03:17:24 38° 62° (ENE) 785 ? -7.0°
Drops below altitude 10° 03:20:51 10° 354° (N) 1,721 ? -7.4°
Sets 03:23:02 0° 347° (NNW) 2,612 ? -7.6°
